GEFSMW_con_probscp_168.txt.gz
Probability
26 30 37 37 30 22 16 10 5 3 3 3 4 3 2 1 0 0 0 0 0 1 1 0 0 0 0 0 0 0 0 0 0 0 0 0 0 0 0 0 0 0 0
30 34 38 37 32 26 17 9 4 3 3 3 4 4 3 1 0 0 0 0 1 2 2 1 0 0 0 0 0 0 0 0 0 0 0 0 0 0 0 0 0 0 0
36 39 40 37 32 27 19 10 5 4 3 3 3 3 2 1 0 1 1 1 2 3 3 1 1 0 0 0 0 0 0 0 0 0 0 0 0 0 0 0 0 0 0
37 39 40 37 32 27 23 16 9 6 5 4 4 3 2 0 1 2 3 3 3 3 3 3 2 1 1 1 0 0 0 0 0 0 0 0 0 0 0 0 0 0 0
34 35 37 37 33 30 28 23 15 10 8 6 5 5 3 2 2 3 4 4 4 4 3 3 3 3 2 2 1 0 0 0 0 0 0 0 0 0 0 0 0 0 0
28 29 33 36 35 33 33 29 21 16 13 10 8 8 7 6 5 5 5 4 4 4 3 4 4 3 3 3 2 1 0 0 0 0 0 0 0 0 0 0 0 0 0
23 25 29 34 36 37 37 32 25 21 20 16 13 11 10 8 7 6 6 5 5 4 4 5 5 4 3 3 3 1 0 0 0 0 0 0 0 0 0 0 0 0 0
20 23 27 32 36 39 39 35 28 26 25 21 18 16 14 11 9 8 7 6 6 6 5 5 6 5 4 3 3 2 1 0 0 0 0 0 0 0 0 0 0 0 0
16 20 25 31 36 40 40 36 32 30 28 24 21 19 16 14 11 9 7 7 7 8 7 5 5 4 3 3 3 3 2 1 0 0 0 0 0 0 0 0 0 0 0
13 17 23 29 35 39 39 36 32 28 27 25 21 17 15 14 11 8 6 7 7 7 7 6 5 4 3 2 2 2 2 1 0 0 0 0 0 0 0 0 0 0 0
12 16 21 26 31 34 35 32 27 23 22 23 20 16 13 13 11 7 6 6 6 6 6 7 8 7 5 3 2 1 1 1 0 0 0 0 0 0 0 0 0 0 0
11 14 19 23 25 26 27 27 24 21 20 20 18 14 13 12 11 9 7 6 4 5 6 7 8 9 7 5 3 1 1 0 0 0 0 0 0 0 0 0 0 0 0
10 12 15 18 18 18 21 23 24 22 21 19 17 14 12 11 10 10 8 5 4 5 6 7 7 8 8 7 5 4 2 1 0 0 0 0 0 0 0 0 0 0 0
9 10 10 11 12 13 16 20 23 23 21 20 17 14 12 11 10 10 9 7 5 5 6 6 6 7 7 7 6 5 4 2 1 1 1 1 1 0 0 0 0 0 0
6 6 5 6 8 11 12 15 19 21 19 18 16 14 13 12 11 10 9 8 6 4 4 4 5 6 6 6 6 5 4 3 3 2 2 2 1 0 0 0 0 0 0
3 2 1 2 5 8 10 11 13 15 16 15 14 13 13 13 12 10 9 8 6 4 3 3 4 5 6 4 3 4 4 4 3 3 3 3 2 0 0 0 0 0 0
1 0 0 0 2 5 7 8 8 9 10 10 10 10 10 11 10 8 7 6 5 3 1 1 1 3 4 2 1 2 3 3 3 3 3 3 2 1 0 0 0 0 0
0 0 0 0 0 2 3 4 5 5 5 6 7 7 8 7 6 4 3 3 3 1 0 0 0 1 1 0 0 0 1 1 1 2 3 3 3 2 0 0 0 0 0
0 0 0 0 0 0 1 3 4 3 3 4 6 6 6 6 4 3 2 1 1 0 0 0 0 0 0 0 0 0 0 0 0 1 2 2 2 1 0 0 0 0 0
0 0 0 1 2 1 1 3 4 4 3 4 6 6 6 6 4 3 3 1 0 0 0 0 0 0 0 0 0 0 0 0 0 0 1 1 1 0 0 0 0 0 0
1 1 1 2 2 2 3 3 3 3 3 4 6 6 6 6 4 3 3 2 1 0 0 0 0 0 0 0 0 0 0 0 0 0 0 0 0 0 0 0 0 0 0
2 2 3 2 2 3 3 3 2 2 2 3 5 6 6 6 5 4 3 2 1 0 0 0 0 0 0 0 0 0 0 0 0 0 0 0 0 0 0 0 0 0 0
3 3 3 3 2 3 3 3 2 3 2 2 3 4 4 4 4 4 3 2 1 1 1 1 1 1 1 0 0 0 0 0 0 0 0 0 0 0 0 0 0 0 0
4 3 3 3 3 3 4 4 4 5 3 1 1 2 2 3 3 4 4 3 2 2 2 2 2 2 1 0 1 1 1 0 0 0 0 0 0 0 0 0 0 0 0
4 4 4 3 4 5 5 5 6 6 4 3 2 3 4 4 4 4 4 3 2 2 2 2 2 1 0 0 2 2 2 0 0 0 0 0 0 0 0 0 0 0 0
3 5 5 4 4 5 5 5 6 6 5 5 6 5 5 5 5 5 3 1 1 1 1 1 1 1 1 0 1 2 1 0 0 0 0 0 0 0 0 0 0 0 0

GEFSMW_con_probscp_174.txt.gz
Probability
31 35 36 33 34 37 39 40 38 33 27 26 24 20 16 12 9 7 6 3 1 0 0 0 0 0 0 0 0 0 0 0 0 0 0 0 0 0 0 0 0 0 0
32 35 37 38 40 43 43 42 39 33 28 26 25 22 18 14 11 9 7 3 1 0 0 0 0 0 0 0 1 1 0 0 0 0 0 0 0 0 0 0 0 0 0
32 37 41 44 45 46 46 42 39 32 27 26 24 20 17 15 13 11 7 4 2 0 0 0 0 0 0 0 1 1 0 0 0 0 0 0 0 0 0 0 0 0 0
29 37 45 48 47 45 42 40 35 29 26 26 22 17 14 12 13 12 9 8 6 3 1 0 0 0 1 1 1 1 1 0 0 0 0 0 0 0 0 0 0 0 0
26 35 45 50 49 43 40 38 33 27 25 25 22 17 13 12 15 16 14 14 12 6 3 1 1 1 2 2 2 2 2 1 1 0 0 0 0 0 0 0 0 0 0
25 32 43 50 50 45 41 39 35 29 26 26 23 19 15 16 21 22 20 18 15 10 5 4 4 3 2 2 3 3 3 3 2 1 1 0 0 0 0 0 0 0 0
23 30 43 50 50 47 45 41 38 34 31 28 26 22 18 20 23 24 22 19 15 12 9 8 8 5 3 3 4 4 3 3 3 3 2 1 1 0 0 0 0 0 0
20 27 37 43 44 45 44 42 41 39 36 33 30 28 24 22 22 22 21 18 14 12 11 12 11 8 6 6 7 5 4 4 4 3 3 3 2 1 1 0 0 0 0
18 21 26 31 35 39 41 42 42 41 39 36 34 32 28 23 21 20 18 16 14 14 15 17 16 12 10 11 11 7 6 6 5 4 4 5 4 3 3 2 1 1 1
14 16 20 24 29 34 37 39 40 40 37 35 34 32 29 23 18 16 16 16 17 18 20 21 20 16 13 13 12 10 8 8 7 5 6 6 5 5 5 5 3 3 2
12 16 20 24 29 31 33 38 39 37 35 34 32 30 27 22 18 16 16 19 21 21 23 24 23 19 16 15 13 11 8 7 6 6 6 6 6 6 6 6 5 4 4
14 18 22 26 29 30 34 39 39 36 34 33 31 29 27 23 19 17 17 19 21 22 23 24 23 20 17 15 14 11 8 6 6 6 7 7 6 7 7 7 6 6 6
18 21 24 26 29 31 35 37 35 32 31 31 31 29 27 25 21 18 17 17 19 19 19 20 20 18 16 14 14 12 10 8 8 8 9 8 7 7 8 7 6 6 6
20 23 25 25 26 29 32 31 28 28 29 30 30 29 27 25 21 19 17 16 15 15 16 17 17 16 14 13 13 13 11 9 10 11 11 10 8 8 7 7 7 8 7
20 24 27 25 24 26 30 29 27 27 28 29 29 29 27 26 24 22 19 17 15 14 16 17 16 13 11 10 11 12 12 11 12 13 13 12 9 7 5 5 7 8 7
21 25 26 26 26 27 31 32 30 28 29 28 27 27 27 28 27 25 23 21 19 18 19 19 17 13 9 5 5 9 12 13 13 13 14 12 9 6 3 3 4 4 4
22 24 25 26 27 29 32 34 32 31 29 26 24 23 23 25 24 22 23 23 23 23 22 21 19 16 9 2 1 4 9 12 14 15 15 14 10 7 5 4 3 3 2
24 23 22 23 25 27 30 33 33 33 30 25 21 19 19 19 19 20 22 24 24 24 23 21 19 16 10 3 0 2 5 10 13 15 15 13 11 9 7 7 6 5 5
24 22 19 20 22 24 27 31 32 32 30 25 20 18 17 17 18 20 22 24 23 21 19 19 17 16 11 4 0 2 6 9 11 12 12 10 9 7 6 8 10 9 9
21 21 20 19 21 23 26 27 28 29 29 25 21 19 19 18 18 20 22 22 21 18 16 14 15 15 12 5 0 2 6 9 10 11 11 8 5 2 3 6 10 11 11
20 21 22 22 22 24 25 23 24 26 27 25 23 22 20 17 17 19 19 18 17 16 15 12 12 14 10 4 0 1 4 7 10 12 12 9 3 0 1 3 6 8 8
22 23 24 23 24 25 25 23 21 21 22 23 22 21 19 15 14 17 18 16 14 13 12 11 12 13 10 4 1 0 1 4 9 13 12 8 3 0 0 1 2 3 2
26 25 24 22 22 22 23 23 21 19 18 19 18 17 16 13 12 14 14 13 13 11 10 11 13 15 15 11 5 2 0 1 5 9 8 4 1 0 0 0 0 0 1
29 28 26 23 20 19 20 22 21 20 18 17 16 14 13 12 12 12 12 12 13 13 12 13 14 16 19 17 11 6 4 3 2 3 3 1 1 0 0 1 1 1 1
28 28 27 25 22 19 19 20 21 21 20 18 17 15 13 12 12 12 11 11 11 11 11 12 13 14 15 13 10 8 8 5 2 0 1 2 2 1 1 1 2 1 1
24 25 26 26 23 21 21 21 21 21 21 20 19 16 13 12 12 12 10 8 6 6 6 7 9 11 9 6 5 5 5 4 1 1 3 4 3 2 1 1 2 2 2

GEFSMW_con_probscp_180.txt.gz
Probability
58 61 62 59 63 69 70 67 66 64 56 45 37 36 37 35 34 39 39 29 15 8 7 8 8 7 6 4 2 1 1 0 0 0 0 1 1 1 0 0 0 0 0
61 63 63 62 65 70 70 68 68 65 58 48 41 40 40 35 32 38 41 31 18 11 9 11 11 9 8 7 5 3 2 1 1 1 0 0 0 0 0 0 0 0 0
62 66 67 65 67 71 71 69 69 66 61 53 45 42 42 37 35 41 43 34 24 17 15 18 18 14 12 10 7 5 4 3 2 2 1 0 0 0 0 0 0 0 0
60 67 71 68 68 69 68 67 66 65 62 55 49 45 41 37 36 42 43 38 30 24 23 26 27 22 16 13 10 7 6 5 4 3 2 1 0 0 0 0 0 0 0
60 68 74 72 69 67 64 62 63 63 60 56 52 47 40 34 35 40 43 42 36 29 28 33 35 30 23 18 15 13 10 7 5 3 3 2 1 1 0 0 0 0 0
59 67 75 76 72 67 63 62 64 63 59 57 54 49 42 38 40 43 43 43 40 33 30 37 41 36 29 24 22 20 14 9 5 4 3 3 2 2 1 0 0 0 1
55 64 73 76 75 71 67 66 68 66 60 58 56 51 44 42 45 45 43 41 38 35 34 39 43 38 31 28 27 23 16 9 6 5 4 3 2 2 1 1 0 1 1
50 58 67 73 75 74 72 70 70 68 63 59 55 49 43 40 41 43 43 41 39 39 40 43 42 38 32 29 28 23 15 11 8 6 5 5 3 2 1 1 2 1 1
45 53 63 69 71 71 71 69 69 68 64 59 52 45 40 38 39 43 44 44 44 45 46 44 39 34 31 29 28 22 16 15 14 10 7 5 5 3 2 2 3 3 1
42 49 60 67 68 66 65 65 65 65 63 58 51 45 43 41 42 45 47 47 47 47 46 42 35 30 29 29 27 22 19 19 18 14 9 8 7 5 3 3 4 4 3
35 42 54 62 64 62 63 63 62 61 60 56 50 47 47 45 44 46 49 50 49 48 44 39 33 28 27 28 25 21 19 19 17 14 11 10 10 8 6 5 5 5 4
28 35 45 54 57 59 61 62 60 58 57 53 49 47 49 48 45 47 49 49 49 48 42 36 31 28 26 27 25 21 19 18 15 13 12 12 12 12 11 9 8 6 5
32 36 45 51 55 58 61 61 59 56 53 50 47 47 48 48 47 48 50 49 47 45 40 35 31 29 28 28 27 25 23 19 16 15 14 13 14 15 15 13 12 9 6
41 45 50 53 56 60 61 60 57 52 48 47 45 45 47 48 48 50 51 49 44 38 36 33 30 28 28 29 29 28 26 22 19 17 16 15 14 15 16 15 13 12 10
43 49 53 54 55 56 56 55 54 51 47 45 44 44 44 45 47 49 51 50 42 34 32 29 25 23 24 24 25 26 25 23 20 18 18 15 11 10 11 10 9 10 11
42 48 53 53 51 50 49 50 52 52 50 47 44 43 43 43 43 44 46 47 41 34 30 27 23 20 17 14 13 17 21 21 19 17 16 12 7 5 5 4 3 5 7
43 48 52 52 52 49 48 49 51 52 52 48 45 43 42 39 36 37 41 42 37 34 32 28 24 21 15 8 4 6 13 18 19 17 14 10 6 5 5 3 2 2 2
47 49 48 49 52 52 51 49 49 49 50 48 45 42 38 33 31 33 38 38 34 32 31 29 25 20 15 7 1 2 7 14 17 15 13 10 8 7 6 6 6 4 3
48 46 44 46 51 53 52 49 47 48 48 45 42 39 35 31 30 33 36 36 33 31 30 27 23 18 13 7 2 1 5 11 14 13 10 10 10 7 6 8 11 11 9
45 43 41 44 50 52 50 47 47 48 48 44 41 39 36 34 32 33 34 34 32 29 26 22 19 16 13 7 2 1 5 9 10 9 8 8 8 6 4 7 12 14 13
41 42 43 45 47 47 46 46 46 46 45 44 41 39 38 35 33 32 33 32 29 26 22 18 15 15 12 7 2 1 4 7 8 8 8 8 5 3 2 4 8 9 8
38 41 44 44 43 42 43 45 45 43 42 41 39 36 34 31 29 29 30 29 27 24 20 16 13 13 11 8 3 1 2 4 5 7 8 7 3 1 0 1 2 3 2
38 40 41 40 40 41 42 45 44 42 40 38 35 31 26 23 22 22 23 23 23 21 17 13 11 11 10 9 5 2 1 1 2 4 5 3 1 0 0 0 0 0 0
41 41 40 38 38 39 41 42 41 39 36 31 28 23 19 16 15 14 14 14 15 15 13 11 10 10 10 11 10 6 3 1 1 1 1 0 0 0 1 1 0 0 0
44 44 42 39 36 36 36 36 35 33 28 23 20 17 15 14 12 9 8 8 8 9 9 9 9 8 8 9 9 8 4 3 2 1 1 1 1 1 3 3 2 1 0
44 45 43 38 34 33 33 32 31 28 23 18 16 15 15 15 13 9 7 6 5 5 5 5 5 5 4 4 5 4 3 2 1 1 2 2 2 3 4 5 4 2 1

GEFSMW_con_probscp_186.txt.gz
Probability
43 46 49 50 49 48 48 47 47 43 34 25 19 14 8 5 3 1 0 0 0 0 0 0 0 0 0 0 0 0 0 0 0 0 0 0 0 0 0 0 0 0 0
50 52 54 54 52 51 51 51 49 45 37 27 20 14 10 7 4 1 0 0 1 2 1 0 0 0 0 0 0 0 0 0 0 0 0 0 0 0 0 0 0 0 0
57 59 61 59 55 54 56 56 51 45 38 29 19 13 10 8 6 3 2 3 5 6 4 1 0 0 0 0 0 0 0 0 0 0 0 0 0 0 0 0 0 0 0
59 63 65 61 57 56 57 57 51 42 36 29 20 12 9 8 8 7 6 7 7 8 6 3 1 0 0 0 0 0 0 0 0 0 0 0 0 0 0 0 0 0 0
59 63 65 62 57 55 55 53 49 40 32 28 21 14 10 8 8 9 9 8 7 6 6 4 1 0 0 0 0 0 0 0 0 0 0 0 0 0 0 0 0 0 0
58 61 62 60 56 53 52 50 47 40 32 27 22 16 12 9 8 10 10 9 7 6 6 6 3 1 1 0 0 0 0 0 0 0 0 0 0 0 0 0 0 0 0
57 59 60 59 56 52 49 48 46 40 33 29 24 18 13 9 7 8 9 11 11 8 7 7 5 3 2 1 1 0 0 0 0 0 0 0 0 0 0 0 0 0 0
56 57 58 58 56 52 49 48 46 41 35 31 25 19 13 7 5 6 7 9 10 9 7 7 6 4 4 4 3 1 0 0 0 0 0 0 0 0 0 0 0 0 0
55 57 57 55 54 51 49 49 49 44 37 30 23 17 10 6 4 4 5 5 6 7 8 8 7 6 5 5 4 3 1 0 0 0 0 0 0 0 0 0 0 0 0
53 55 55 52 51 51 50 50 51 47 38 30 24 18 12 7 4 3 3 2 3 7 9 9 7 6 6 5 4 3 2 1 0 0 0 0 0 0 0 0 0 0 0
47 50 51 48 48 49 51 54 52 47 41 35 31 27 20 13 7 5 4 4 5 7 8 7 5 6 6 6 5 4 3 2 1 0 0 0 0 0 0 0 0 0 0
40 44 47 46 46 48 52 55 52 47 43 41 40 35 28 20 14 10 9 8 7 6 4 4 4 6 8 9 9 8 6 4 2 1 0 0 0 0 1 1 1 1 1
39 42 44 45 47 48 51 52 51 48 44 41 40 36 31 25 20 17 15 12 9 5 4 4 6 9 11 12 13 12 10 6 4 3 2 2 2 2 3 3 2 2 2
40 40 41 43 46 47 47 46 47 45 40 37 35 32 30 28 23 19 17 15 11 7 5 5 7 10 12 13 13 12 9 6 5 4 4 6 7 6 5 4 4 4 4
41 39 38 39 43 44 43 42 42 40 37 36 34 31 28 28 25 20 18 17 14 11 8 6 7 8 10 10 9 8 7 5 4 4 5 7 7 6 5 3 4 5 5
40 39 38 38 39 41 40 39 37 35 36 38 38 33 27 24 23 20 18 18 17 13 8 6 5 4 5 5 4 4 5 5 4 4 5 6 5 4 2 2 2 3 3
37 38 38 37 38 38 36 34 33 33 35 38 39 34 26 21 18 16 14 14 15 12 9 8 6 4 3 1 1 2 3 4 4 4 4 4 4 4 3 1 0 1 1
32 33 34 36 36 34 32 30 30 30 32 35 35 31 25 19 14 11 8 9 11 11 11 10 8 6 3 1 0 0 1 2 3 3 3 3 4 4 4 2 0 0 0
30 31 33 35 35 33 31 30 28 26 27 29 28 25 22 17 12 9 7 7 8 10 11 10 10 7 5 2 1 0 1 1 1 1 1 2 3 3 2 1 0 0 0
31 32 34 36 35 32 31 30 27 23 22 22 22 21 19 15 12 10 8 7 8 9 10 10 10 9 6 4 2 1 2 2 1 1 1 1 1 1 0 0 0 0 0
32 33 35 36 34 32 30 27 23 20 19 19 20 19 16 13 12 10 8 7 8 9 9 10 10 10 7 5 3 1 2 3 3 3 3 1 0 0 0 0 0 0 0
31 31 32 31 29 29 28 23 19 18 19 20 20 17 14 13 12 10 8 7 7 7 8 9 9 8 6 5 3 1 1 3 4 5 5 3 1 0 0 0 0 0 0
30 29 28 27 26 26 25 20 16 17 19 19 17 14 12 12 11 10 9 7 6 6 6 6 5 5 4 4 2 1 0 1 3 4 4 2 1 0 0 0 0 0 0
29 28 28 27 27 26 21 16 14 15 15 16 14 11 10 9 8 7 7 6 6 5 4 3 3 2 2 2 1 0 0 0 1 1 1 1 0 0 0 0 0 0 0
28 27 27 27 26 24 18 15 14 13 13 13 12 9 7 6 5 4 4 3 3 3 2 2 1 1 1 1 0 0 0 0 0 0 0 0 0 0 0 0 0 0 0
29 26 25 24 22 20 17 15 14 13 12 12 11 9 7 4 2 2 2 2 1 1 1 1 0 0 0 0 0 0 0 0 0 0 0 0 0 0 0 0 0 0 0

GEFSMW_con_probscp_192.txt.gz
Probability
6 8 12 19 22 20 17 14 10 7 6 5 4 3 1 0 0 0 0 0 0 0 0 0 0 0 0 0 0 0 0 0 0 0 0 0 0 0 0 0 0 0 0
13 12 15 21 24 24 21 18 13 9 7 5 4 2 1 0 0 0 0 0 0 0 0 0 0 0 0 0 0 0 0 0 0 0 0 0 0 0 0 0 0 0 0
21 21 23 27 30 30 28 23 18 14 11 8 7 5 3 2 1 0 0 0 0 0 0 0 0 0 0 0 0 0 0 0 0 0 0 0 0 0 0 0 0 0 0
27 28 31 35 37 37 33 26 22 21 19 16 15 13 10 6 3 1 0 0 0 0 0 0 0 0 0 0 0 0 0 0 0 0 0 0 0 0 0 0 0 0 0
30 34 38 41 43 43 36 28 25 26 26 24 23 21 16 11 7 3 2 1 0 1 1 1 1 0 0 0 0 0 0 0 0 0 0 0 0 0 0 0 0 0 0
28 35 41 44 46 43 37 30 27 27 28 26 25 23 19 13 9 7 5 3 2 3 3 3 2 1 1 1 0 0 0 0 0 0 0 0 0 0 0 0 0 0 0
23 31 41 46 47 43 37 31 28 27 27 26 24 21 17 13 10 8 7 5 5 5 5 4 3 3 2 2 1 1 0 0 0 0 0 0 0 0 0 0 0 0 0
17 24 37 45 46 43 37 33 29 27 25 25 24 21 16 13 10 8 7 7 6 6 5 4 3 2 2 2 2 2 1 0 0 0 0 0 0 0 0 0 0 0 0
14 21 32 40 42 40 37 34 32 28 25 25 24 20 16 14 11 8 6 6 6 6 4 2 1 1 1 1 2 3 1 0 0 0 0 0 0 0 0 0 0 0 0
15 20 29 36 37 37 36 35 34 30 25 25 24 20 16 14 11 8 6 6 5 4 2 1 0 0 0 0 1 2 2 1 1 0 0 0 0 0 0 0 0 0 0
16 20 26 31 34 35 36 36 33 29 26 27 25 21 17 13 10 8 5 4 3 2 1 0 0 0 0 0 0 1 3 2 2 1 0 0 0 0 0 0 0 0 0
15 18 22 27 30 34 37 36 32 27 26 28 27 23 19 14 10 9 8 6 3 2 2 1 0 0 1 1 1 2 3 3 2 1 0 0 0 0 0 0 1 1 1
15 16 19 24 28 33 37 37 33 28 27 28 27 26 23 20 16 13 11 9 6 5 6 4 1 1 2 3 3 3 3 3 3 3 2 1 0 0 0 0 1 2 2
15 14 16 21 26 31 33 33 31 30 30 30 29 27 26 25 21 16 12 10 9 9 8 6 3 2 3 5 5 5 4 4 4 4 4 3 2 1 1 1 1 2 2
13 12 14 19 23 26 28 27 28 30 33 33 30 27 25 25 22 18 13 10 10 10 9 8 6 4 3 4 4 5 5 3 2 2 3 3 2 2 2 2 2 2 2
13 14 18 21 23 25 27 26 26 30 32 33 31 27 24 23 20 19 16 13 11 10 10 9 8 6 4 2 1 3 4 3 1 1 1 2 2 2 1 1 1 1 2
15 17 22 24 24 25 27 27 27 28 29 30 29 27 23 20 19 20 18 15 11 10 10 8 6 5 3 1 0 1 2 3 2 1 1 2 2 2 2 1 1 1 1
16 19 22 22 20 20 23 25 25 25 25 25 25 24 21 18 18 18 17 12 9 9 9 6 4 3 2 1 0 0 1 2 2 1 1 1 2 2 2 2 2 2 2
16 18 19 19 17 17 21 24 22 20 20 20 20 20 19 17 15 14 12 9 7 7 7 6 4 4 3 1 0 0 0 1 1 1 2 2 1 1 1 1 3 3 3
16 18 18 18 17 19 23 24 21 17 15 14 15 15 15 14 11 9 8 7 7 5 4 5 6 5 3 1 0 0 0 1 2 3 3 2 1 0 0 1 2 2 1
17 17 18 17 18 21 23 23 20 16 12 11 12 12 10 8 7 7 7 7 5 3 3 4 5 6 4 1 0 0 0 2 3 3 3 2 1 0 0 0 1 1 0
15 14 13 14 17 20 23 22 20 17 14 13 13 10 6 5 6 7 8 7 4 3 3 4 4 5 4 2 0 0 0 1 2 2 2 2 1 0 0 0 0 0 0
15 13 11 13 16 19 22 22 21 19 17 16 13 8 4 4 6 7 7 6 5 4 5 4 4 4 4 2 1 0 0 0 1 1 1 1 0 0 0 0 0 0 0
18 16 15 16 17 17 18 18 19 19 18 16 12 7 4 4 6 7 6 5 5 4 3 3 3 3 3 2 1 0 0 0 0 0 0 0 0 0 0 0 0 0 0
20 19 19 18 17 15 13 13 15 17 18 16 11 6 3 3 5 5 4 3 2 1 1 1 1 2 1 1 0 0 0 0 0 0 0 0 0 0 0 0 0 0 0
20 21 21 19 16 13 11 11 13 15 17 17 12 6 3 2 3 3 2 1 0 0 0 0 0 1 0 0 0 0 0 0 0 0 0 0 0 0 0 0 0 0 0

GEFSMW_con_probscp_198.txt.gz
Probability
9 13 16 17 18 19 21 21 19 18 19 17 16 15 13 12 7 3 1 0 0 0 0 0 0 0 0 0 0 0 0 0 0 0 0 0 0 0 0 0 0 0 0
12 18 21 22 24 25 25 25 24 24 22 18 15 13 13 11 7 3 1 1 0 0 0 0 0 0 0 0 0 0 0 0 0 0 0 0 0 0 0 0 0 0 0
12 20 26 30 32 31 28 29 31 32 29 23 18 15 13 11 8 4 2 2 1 0 0 0 0 0 0 0 0 1 1 2 1 1 1 0 0 0 0 0 0 0 0
8 17 28 35 37 34 31 32 36 37 35 30 25 20 17 14 11 7 4 2 1 0 0 1 1 1 1 1 1 2 3 3 3 2 2 1 0 0 0 0 0 0 0
6 13 25 36 39 36 34 36 40 39 36 32 29 26 22 18 15 11 7 5 4 3 2 2 3 3 2 2 3 3 3 3 3 3 2 1 0 0 0 0 0 0 0
6 10 21 33 41 39 36 38 41 39 34 29 27 26 24 20 17 14 11 9 8 7 5 5 5 5 4 4 3 3 3 3 3 3 3 2 1 0 0 0 0 0 0
8 10 17 29 39 43 41 40 42 38 31 26 25 24 23 21 19 16 13 10 8 7 7 7 7 7 6 6 6 5 4 4 4 5 6 6 4 2 1 1 1 0 0
11 12 15 21 31 41 44 43 43 38 30 27 26 24 22 20 19 17 14 10 7 6 7 8 8 8 8 9 10 9 7 7 7 8 10 10 7 5 4 3 2 1 0
13 13 13 14 22 35 43 43 41 38 33 30 28 25 22 19 18 17 15 11 8 7 7 8 9 9 9 11 14 15 15 15 13 11 12 12 11 11 9 7 6 4 2
12 14 15 15 21 30 38 39 38 38 35 30 27 25 21 18 16 15 14 10 8 8 8 9 11 12 13 14 17 20 22 21 17 14 13 14 15 16 15 12 11 9 7
12 14 16 19 24 30 35 36 35 35 32 27 24 23 20 18 15 14 13 10 8 8 8 9 13 16 17 18 19 21 22 22 18 14 15 15 17 20 19 16 15 15 15
16 16 17 20 24 29 34 35 32 30 27 24 22 20 19 18 16 15 14 12 9 8 8 10 12 15 18 20 20 17 18 19 18 15 15 16 18 20 20 19 18 17 18
26 25 24 25 28 30 34 35 32 28 25 22 19 18 19 19 19 18 17 15 13 9 9 10 10 11 14 18 17 15 15 18 18 17 15 15 17 18 19 19 18 16 16
36 34 32 33 35 36 35 36 35 32 28 25 22 21 22 22 22 20 17 17 16 12 11 12 11 11 12 14 14 14 15 17 17 17 15 13 13 13 14 15 15 13 13
35 34 34 35 36 37 36 37 39 37 34 32 31 30 28 28 25 21 19 20 20 19 19 18 16 15 13 11 11 11 13 15 15 15 13 11 8 8 7 8 9 10 11
27 28 31 32 32 33 33 37 42 43 40 40 39 38 35 32 30 27 26 28 28 27 25 23 21 19 14 8 6 6 8 11 12 11 9 6 5 4 3 3 3 4 6
21 22 26 29 30 29 30 35 42 45 43 40 39 39 36 34 33 32 32 34 34 33 29 25 22 20 14 6 2 1 4 7 8 7 6 4 3 3 4 3 2 2 3
19 19 21 26 29 29 29 33 39 43 40 34 34 35 34 33 35 35 35 36 37 36 32 27 22 18 13 5 1 0 3 6 7 8 8 6 4 3 4 5 5 4 4
22 19 20 25 29 30 29 31 37 39 35 30 30 33 34 33 34 35 35 36 36 35 33 29 24 19 12 5 1 1 4 8 10 11 10 7 5 4 3 4 6 6 6
24 20 21 27 32 33 31 31 35 36 33 30 31 34 34 31 31 32 34 34 33 31 29 28 25 19 12 5 1 2 6 9 11 10 8 6 4 3 2 3 5 6 6
22 22 23 29 34 36 34 35 38 38 36 35 34 36 34 29 26 28 31 32 29 26 25 25 24 19 12 5 1 2 5 8 9 8 7 5 3 1 1 1 3 3 3
20 21 22 26 33 37 38 40 41 40 38 35 33 34 32 26 23 25 27 27 24 21 21 21 20 16 10 5 2 1 2 4 5 6 6 4 2 0 0 0 1 1 1
19 21 21 23 31 37 39 40 38 37 33 30 28 29 28 25 22 23 23 21 18 16 17 17 15 11 7 4 3 2 1 1 2 4 3 2 0 0 0 0 0 0 1
18 21 22 23 28 35 37 35 33 32 30 27 26 26 25 23 21 21 19 16 14 14 14 13 10 7 5 3 2 2 1 1 1 1 1 1 0 1 1 1 2 2 3
20 22 23 24 26 29 32 30 30 31 31 29 28 26 23 20 18 15 12 9 9 10 10 8 6 4 2 1 1 1 2 1 0 1 2 2 1 1 2 4 5 5 5
23 24 24 24 24 25 26 27 28 31 32 32 30 26 21 18 15 11 6 4 4 4 5 4 3 1 1 0 0 1 1 1 0 1 2 2 1 1 3 5 7 6 5

GEFSMW_con_probscp_204.txt.gz
Probability
46 45 44 44 48 53 54 52 52 50 44 36 30 27 24 22 20 23 27 26 20 16 11 6 3 2 1 0 0 1 2 2 1 1 0 0 1 2 1 0 1 1 0
51 52 52 52 56 59 59 56 55 52 45 39 34 30 28 25 23 25 29 27 21 17 10 6 5 4 3 2 2 3 3 3 2 2 1 1 1 1 1 0 2 3 3
53 59 63 61 61 64 63 59 58 55 50 44 38 34 31 27 25 27 28 25 20 15 10 7 6 6 5 4 4 5 4 3 4 4 3 1 1 0 0 0 3 6 7
48 59 68 66 62 63 63 62 62 60 57 50 42 37 33 29 27 26 25 22 17 14 12 10 9 8 6 5 5 6 5 5 5 4 3 2 1 1 0 0 2 5 6
43 54 65 67 64 61 63 66 68 67 61 53 44 39 36 32 28 25 24 22 18 15 13 12 13 11 8 7 7 9 11 10 8 6 5 5 4 3 1 0 1 3 3
40 48 59 66 65 62 63 68 73 72 64 53 43 38 37 34 29 26 24 23 20 18 15 14 15 16 14 11 11 15 18 16 13 11 10 8 6 4 2 1 0 1 1
41 47 57 63 64 63 66 72 75 74 66 53 43 39 36 32 28 26 24 22 20 19 18 17 19 21 20 16 15 19 23 23 20 17 14 11 8 6 4 2 1 0 0
40 46 54 58 59 61 66 71 73 71 63 52 44 40 36 29 26 26 23 20 19 19 22 23 23 24 25 22 20 22 26 27 25 21 18 15 12 9 8 7 5 3 1
33 39 47 50 51 54 58 63 65 62 56 49 43 40 35 28 23 24 24 21 19 19 23 26 25 26 28 27 25 25 28 28 25 23 22 20 17 15 15 15 13 8 5
27 33 39 43 47 50 52 55 57 57 53 48 42 38 36 29 23 23 24 25 23 22 24 27 27 27 28 30 29 28 29 28 25 24 24 23 21 19 20 20 18 14 10
29 33 37 40 45 50 51 52 55 56 54 48 42 39 37 32 26 25 27 29 29 29 30 31 30 27 26 28 29 29 28 27 26 25 25 23 21 20 20 19 18 16 15
33 38 41 42 45 49 51 54 56 56 51 46 42 39 37 35 32 31 32 34 37 38 37 37 35 30 26 27 28 28 25 24 24 24 23 22 20 20 19 18 17 16 15
37 43 46 46 49 52 55 59 60 56 51 46 42 38 38 39 38 36 36 38 41 42 41 40 38 33 29 27 28 27 23 21 20 20 20 20 20 20 20 18 15 14 13
41 46 48 50 54 58 60 62 61 57 54 49 44 41 43 43 41 38 37 39 43 43 40 38 36 33 29 26 26 25 22 18 16 16 17 18 18 18 17 14 11 11 11
39 44 47 50 55 59 60 61 60 57 56 53 49 48 50 48 44 40 40 43 45 44 39 35 33 30 25 21 22 22 20 17 16 15 14 16 15 12 10 8 7 8 9
37 41 45 49 55 56 56 58 58 57 56 54 52 52 54 53 50 47 47 48 47 44 39 34 30 27 20 14 14 16 17 18 19 17 16 15 13 10 8 5 4 4 5
37 39 41 47 53 55 52 52 54 56 56 53 52 52 53 54 53 52 51 50 48 44 40 36 32 27 20 12 8 9 13 17 19 19 18 15 12 11 10 6 4 3 3
40 39 38 43 49 51 47 45 48 52 54 52 51 51 51 52 52 50 49 49 47 44 40 37 36 30 21 12 6 5 10 14 16 17 17 15 14 11 10 7 5 4 4
42 39 36 39 47 49 46 44 46 50 50 50 51 51 50 50 49 47 47 46 43 39 36 35 34 29 20 11 4 4 8 12 14 14 13 13 12 9 6 4 4 4 4
41 40 37 40 46 50 49 47 47 48 48 47 49 50 49 47 46 45 44 42 38 33 32 31 29 25 19 10 4 4 9 13 15 15 12 8 7 5 2 2 3 3 3
40 40 41 43 45 45 47 48 47 47 47 47 47 47 46 43 42 42 41 38 34 32 31 29 25 22 17 10 4 4 8 13 16 15 11 6 3 1 0 1 2 2 2
40 40 42 43 40 38 42 44 44 45 47 47 46 45 43 39 37 37 36 34 31 29 28 25 20 16 13 8 4 3 5 9 12 11 8 4 1 0 0 0 1 1 1
41 38 36 36 34 33 36 40 41 44 46 45 43 42 41 38 35 33 31 28 25 24 22 20 16 12 9 7 4 2 1 3 4 4 3 2 0 0 0 0 0 0 0
40 36 31 30 31 32 34 36 40 44 45 43 41 40 39 35 31 27 23 19 18 18 17 16 15 12 9 6 3 1 0 0 0 1 1 1 1 1 1 0 0 0 0
36 34 31 30 30 32 35 36 38 43 42 39 38 38 35 29 23 17 12 10 9 10 11 12 12 11 8 5 2 1 0 0 0 0 1 2 2 2 1 0 0 0 0
33 32 32 31 31 33 35 35 38 41 39 35 35 35 30 23 17 10 6 4 3 3 5 8 9 7 5 2 0 0 0 0 0 1 2 3 3 3 1 0 0 0 0

GEFSMW_con_probscp_210.txt.gz
Probability
22 25 28 31 34 31 26 24 24 23 19 14 11 7 4 3 4 6 6 5 4 4 3 3 3 1 0 0 0 0 0 0 0 0 0 0 0 0 0 0 0 0 0
28 31 34 35 36 34 29 27 26 24 21 16 11 7 3 2 3 5 7 7 6 5 3 3 3 2 0 0 0 0 0 0 0 0 0 0 0 0 0 0 0 0 0
36 40 42 42 39 35 32 31 30 29 27 21 13 8 5 3 3 6 8 9 9 7 4 2 2 1 0 0 0 0 0 0 0 0 0 0 0 0 0 0 0 0 0
40 44 47 47 43 36 34 34 34 34 34 29 20 12 8 5 4 6 9 10 10 8 5 2 1 0 0 0 0 0 0 0 0 0 0 0 0 0 0 0 0 0 0
43 47 50 52 47 38 35 36 36 34 34 31 23 15 9 5 4 5 8 9 9 8 6 3 1 0 0 0 1 1 1 0 0 0 0 0 0 0 0 0 0 0 0
47 48 52 54 51 44 38 37 36 33 31 28 21 15 10 5 4 5 7 9 9 7 5 3 1 0 1 2 2 2 2 1 0 0 0 0 0 0 0 0 0 0 0
47 48 51 53 54 51 46 43 38 32 29 26 20 16 11 6 4 5 7 9 9 7 5 2 1 1 2 4 4 4 4 2 1 0 0 0 0 0 0 0 0 0 0
49 49 50 52 53 53 51 48 41 35 31 26 21 18 14 9 5 5 6 7 7 6 5 3 2 2 3 5 5 5 5 3 1 1 1 1 0 0 0 0 0 0 0
50 49 49 49 49 47 46 46 43 39 34 28 23 21 17 12 8 6 5 6 6 6 5 4 5 5 5 5 6 6 5 3 2 2 2 2 1 0 0 0 0 0 0
46 46 47 46 44 41 40 42 43 42 37 31 27 23 19 14 10 8 6 5 5 6 5 5 6 6 6 7 7 6 4 3 3 3 4 4 2 2 2 1 1 2 1
40 42 45 44 41 40 41 43 45 45 41 36 31 25 19 14 10 8 6 4 5 6 6 6 7 7 7 7 7 5 4 3 3 4 5 6 5 4 3 3 3 3 3
35 38 42 42 41 41 44 47 48 48 46 42 36 27 19 13 11 9 7 5 5 6 6 7 8 8 8 7 6 5 4 3 3 4 5 6 7 6 5 4 3 3 3
33 36 40 40 38 40 44 47 48 48 48 44 39 30 21 15 13 11 9 7 6 6 6 7 8 9 9 9 8 7 7 6 6 6 6 6 7 6 5 3 1 1 1
34 36 38 36 35 38 42 45 44 44 45 44 39 31 24 19 17 15 12 9 8 8 7 8 10 13 13 11 9 9 9 9 8 8 7 7 6 5 3 1 0 0 0
35 37 36 35 36 39 42 43 40 38 40 42 40 33 26 23 21 18 16 13 11 11 11 11 13 15 15 12 10 10 11 10 9 8 7 7 5 3 1 0 0 0 0
35 35 34 35 38 41 43 41 36 33 36 39 40 35 29 25 24 22 19 16 15 16 16 14 12 13 13 11 9 9 9 7 6 6 6 6 4 2 1 1 1 1 0
29 30 31 32 35 38 39 36 31 29 31 34 35 34 32 30 29 26 22 20 20 21 19 15 11 10 10 8 6 4 4 3 3 5 6 5 4 3 2 2 2 1 1
23 25 25 25 27 29 31 32 29 27 27 27 28 30 31 32 31 28 25 24 25 24 19 14 11 9 8 4 2 1 0 1 2 3 4 3 4 4 2 2 2 1 0
20 20 21 21 22 23 25 30 32 30 28 26 26 26 28 30 30 29 28 27 26 22 16 12 10 8 6 2 0 0 1 1 1 1 2 2 2 2 1 0 0 0 0
21 20 20 21 21 21 24 29 33 34 32 30 27 25 27 29 29 28 28 26 22 17 13 10 8 7 5 2 0 1 2 2 2 2 2 1 1 1 0 0 0 0 0
25 23 22 20 19 20 22 25 29 31 30 29 26 26 28 29 28 27 25 22 18 15 12 10 7 7 6 2 0 1 2 3 4 3 1 0 0 0 0 0 0 0 0
27 25 21 17 16 17 18 19 22 23 22 21 22 24 26 27 26 25 23 20 17 15 14 10 8 6 4 1 0 0 1 3 4 3 1 0 0 0 0 0 0 0 0
26 23 19 15 13 13 15 16 17 17 16 16 16 18 21 23 23 22 21 20 17 16 15 13 9 6 3 1 0 0 0 1 2 2 1 0 0 0 0 0 0 0 0
24 20 17 15 12 11 13 15 15 15 14 13 13 14 17 18 19 18 17 17 16 15 14 12 10 6 3 1 0 0 0 0 0 1 1 0 0 0 0 0 0 0 0
22 20 18 16 13 12 13 14 16 15 13 11 12 13 14 14 14 12 10 10 10 10 9 8 7 5 3 2 0 0 0 0 0 0 0 0 0 0 0 0 0 0 0
19 19 20 18 15 14 13 14 16 15 13 11 12 13 13 12 10 7 5 4 4 4 4 5 5 4 3 1 0 0 0 0 0 0 0 0 0 0 0 0 0 0 0